GFSSE_sfc_rhum_228.txt.gz
RH
31 30 92 92 92 90 93 93 92 91 90 90 90 89 90 90 91 91 90 88 87 84 80 80 82 81 77 78 81 85 86 86 85 83 81 80 77 77 77 79 72 46 82
31 34 93 92 92 94 94 93 92 91 90 90 90 90 91 90 90 90 89 88 85 83 79 80 82 79 79 84 89 89 88 86 85 84 81 76 77 77 78 84 71 62 82
34 39 60 92 92 93 92 92 91 90 89 90 91 91 90 90 90 90 89 87 85 83 79 78 79 81 85 89 92 91 90 90 88 84 78 38 50 77 78 83 85 84 82
35 38 42 93 91 92 92 92 90 89 89 90 90 91 90 89 90 90 89 88 85 83 80 78 79 82 86 91 91 90 90 90 86 78 36 36 43 78 80 80 81 79 82
36 38 42 92 91 91 92 92 91 91 91 91 91 90 89 89 89 89 89 88 85 83 80 78 80 84 88 88 88 87 87 87 82 62 35 40 42 68 79 81 81 81 80
36 36 76 93 92 90 91 91 92 93 93 93 92 90 90 89 88 89 90 88 85 82 81 80 81 88 89 88 86 86 86 84 85 28 36 48 41 78 80 82 84 84 87
38 39 56 94 92 90 90 91 92 94 94 94 93 92 91 90 90 90 90 88 86 83 84 86 87 90 88 85 81 82 84 82 34 30 36 41 50 80 78 82 84 85 86
40 45 49 86 92 92 91 92 94 94 95 94 94 94 92 92 92 92 90 89 88 88 89 89 89 88 86 82 79 78 78 79 40 33 35 37 80 79 77 82 85 86 86
45 48 52 58 72 95 94 95 95 95 95 95 95 95 94 93 93 93 92 90 90 91 90 89 88 87 85 82 78 78 83 75 38 31 33 36 88 78 76 81 83 84 84
53 53 55 55 58 62 68 94 95 95 96 96 95 96 95 93 93 94 94 92 91 90 89 88 88 86 85 82 80 81 77 76 38 34 34 40 88 79 76 79 82 83 83
54 56 57 56 56 59 56 67 91 94 95 96 90 96 90 48 58 70 70 93 91 90 89 88 88 89 88 83 82 81 78 30 33 34 33 86 88 80 79 80 83 84 84
50 55 55 57 55 56 43 57 57 54 55 57 57 64 50 47 46 42 64 93 92 91 90 89 88 90 85 40 43 70 36 32 35 34 33 87 90 82 80 83 85 86 86
39 45 50 57 58 54 44 46 45 45 46 49 53 56 49 47 48 44 46 57 56 80 50 63 62 49 46 40 37 38 35 36 31 33 48 88 88 84 80 84 85 84 87
34 40 45 47 56 57 41 44 43 42 44 44 46 56 49 49 50 47 40 43 48 44 44 44 41 46 46 47 46 46 45 37 30 34 46 90 90 87 81 82 84 83 86
32 37 44 46 55 55 52 44 45 46 46 42 45 53 45 43 48 42 42 39 42 40 42 42 41 44 47 47 46 48 46 44 43 37 36 89 93 89 87 80 82 83 83
30 34 42 44 53 53 55 54 49 49 46 45 42 43 55 40 43 40 43 42 40 40 40 41 41 43 44 44 48 50 49 42 40 44 37 47 93 92 91 89 85 79 79
26 29 43 48 52 58 59 57 53 48 48 47 42 50 54 48 46 46 40 43 41 40 46 44 45 45 43 44 49 46 48 48 40 44 45 43 52 96 93 93 92 88 85
22 28 38 40 49 58 57 54 51 47 51 46 44 45 55 51 47 51 40 42 39 42 44 45 45 44 44 43 47 44 42 42 40 40 40 43 42 40 82 92 94 94 92
21 26 35 45 47 56 57 52 53 54 51 46 44 43 53 55 50 49 39 39 45 42 44 44 44 45 40 42 40 41 42 39 39 34 37 41 49 48 41 81 92 95 95
23 28 32 42 48 53 49 52 47 46 48 46 44 43 50 52 56 54 42 43 45 41 41 43 48 44 45 39 34 34 40 39 39 40 37 35 39 48 53 51 57 64 97
27 30 35 42 51 48 48 48 47 48 47 46 42 47 50 52 58 58 49 48 50 46 44 49 48 54 45 46 46 46 44 48 55 49 40 39 40 44 53 53 53 52 54
28 31 36 40 48 51 45 44 42 43 42 43 43 47 51 54 58 57 58 50 53 48 52 53 55 49 45 43 51 51 50 48 54 60 54 48 52 45 49 56 61 59 57
20 28 31 37 44 50 49 46 46 45 47 48 48 48 50 54 58 63 59 56 57 56 49 60 59 60 48 48 56 49 54 63 48 51 67 60 59 55 53 59 65 67 74
16 23 23 30 36 46 52 47 53 50 50 46 50 48 49 56 56 59 64 60 62 55 58 55 54 61 61 51 52 57 58 49 57 57 66 73 71 76 86 92 94 96 96
11 20 28 30 31 40 52 54 51 54 46 42 46 52 56 56 59 56 62 63 65 60 62 64 62 66 56 57 51 55 63 58 62 67 64 84 94 92 93 93 97 98 98
10 19 29 29 28 35 48 57 59 59 54 44 47 50 50 53 57 62 61 66 66 63 63 62 66 65 65 61 58 56 55 62 68 81 84 77 78 86 96 98 99 97 98

GFSSE_sfc_rhum_231.txt.gz
RH
20 41 93 92 85 94 92 91 91 91 91 91 90 90 90 91 91 91 91 89 86 83 78 79 82 79 77 78 81 85 86 86 86 84 82 79 75 74 73 74 72 56 83
23 37 94 92 83 93 92 91 91 92 92 91 90 91 91 92 91 91 90 88 85 82 78 78 78 78 78 81 86 86 86 86 86 85 82 77 77 78 74 82 71 67 81
26 39 60 93 84 88 92 91 91 91 91 90 91 92 91 91 90 91 90 88 84 82 78 77 78 79 83 86 90 89 88 86 86 84 76 39 52 76 76 83 85 81 77
26 36 46 95 90 93 92 92 91 90 91 91 91 91 90 90 91 91 90 89 85 83 79 77 78 82 86 91 91 90 88 84 85 85 47 36 42 77 76 78 82 83 79
28 32 48 94 94 94 93 92 92 92 92 92 92 90 89 89 88 90 90 89 85 83 79 77 80 85 90 91 90 89 86 82 81 69 32 38 43 70 78 80 78 81 79
28 30 82 94 95 94 92 92 93 93 94 93 92 90 88 87 88 90 91 89 85 83 81 79 82 87 88 87 86 85 84 83 86 27 33 42 41 78 78 81 83 83 86
30 36 53 94 94 93 92 92 93 93 93 94 93 92 91 90 90 91 91 89 87 85 84 85 88 88 87 85 85 84 82 81 51 27 34 39 56 78 78 80 82 84 84
31 41 45 86 93 93 92 93 94 93 93 94 94 93 92 92 92 91 91 90 89 89 89 89 90 88 85 82 80 81 80 82 44 28 31 36 80 77 76 80 83 84 84
35 44 49 55 71 94 94 94 94 94 94 94 94 94 93 92 92 91 90 90 91 91 90 89 89 87 84 81 77 76 70 75 52 27 28 42 86 77 76 80 82 83 83
42 48 53 54 55 59 66 95 94 94 95 94 95 95 94 92 92 92 90 90 91 91 89 88 88 86 83 80 77 76 66 74 41 28 30 51 86 76 75 78 80 81 82
43 48 53 54 54 57 52 66 92 94 94 95 90 95 90 50 58 70 66 90 90 90 89 87 87 87 86 81 78 78 79 34 30 29 29 88 88 77 77 79 82 82 82
42 47 49 52 52 54 40 54 58 55 58 59 57 66 51 45 44 42 61 91 90 90 88 88 87 88 85 41 45 72 40 32 33 30 38 88 87 79 79 82 84 84 83
36 40 44 51 54 50 40 45 42 43 45 49 53 56 51 42 44 39 46 56 55 80 56 66 64 54 48 42 33 38 33 34 30 28 62 89 87 82 80 83 84 83 86
32 37 39 42 50 54 36 40 38 36 40 42 43 56 51 43 45 42 36 44 48 42 48 48 46 50 47 44 42 40 42 39 29 28 57 88 88 87 80 81 85 84 86
29 34 39 41 50 50 50 38 39 39 39 38 40 47 44 41 49 42 39 37 40 37 40 41 41 41 44 44 44 46 45 43 39 33 33 89 89 87 86 80 82 84 83
25 30 38 38 50 47 49 50 44 44 41 38 38 40 52 40 46 41 40 37 35 36 36 38 38 38 41 43 47 48 46 43 40 40 34 54 90 89 88 88 85 84 83
21 25 39 44 48 53 56 50 45 40 40 41 37 49 52 46 48 47 39 40 37 38 46 43 45 41 40 41 46 44 46 48 44 41 38 41 58 94 90 89 92 90 85
18 24 34 33 43 54 54 49 43 40 44 40 40 39 51 50 46 50 38 40 37 39 38 42 42 41 42 41 45 41 41 43 46 46 39 40 40 39 84 90 91 93 92
16 23 30 41 41 52 54 48 48 50 44 41 40 37 50 51 48 46 40 38 45 38 40 42 43 45 41 41 38 39 41 37 39 33 39 43 46 45 41 81 90 91 93
15 20 26 39 44 51 47 49 43 42 43 41 40 39 46 48 53 51 42 45 44 38 38 39 48 43 42 39 30 32 41 39 39 38 38 37 39 44 51 51 64 67 93
18 19 24 37 47 43 45 46 45 46 44 43 39 44 46 48 56 56 49 48 48 44 45 50 49 53 45 45 43 41 39 44 48 42 42 42 40 41 46 49 52 48 64
20 23 25 30 43 45 42 41 40 41 40 40 41 44 46 49 55 56 57 49 50 46 54 54 56 49 48 46 49 47 50 46 46 51 52 55 56 45 45 48 52 55 60
21 26 24 31 38 45 44 42 41 41 41 41 42 43 45 49 54 60 59 57 54 54 51 59 59 61 51 50 54 50 51 52 46 44 63 60 62 52 51 52 60 67 74
14 22 24 27 33 41 49 43 48 43 43 40 44 42 44 51 53 57 62 61 62 54 58 58 56 61 63 56 52 50 58 56 53 53 56 65 64 65 70 75 82 81 84
11 17 24 25 26 34 45 52 47 50 44 41 43 49 52 53 55 54 61 64 66 60 63 63 63 66 59 61 54 53 62 60 65 65 62 65 76 77 77 84 90 93 91
7 13 23 28 25 26 38 52 57 55 52 44 45 47 48 50 54 59 59 66 67 65 65 64 66 66 67 63 60 58 54 61 65 65 67 65 64 73 76 80 90 94 97

GFSSE_sfc_rhum_237.txt.gz
RH
88 96 95 95 94 93 92 92 93 93 92 92 93 92 91 92 92 91 90 86 83 82 78 79 81 80 78 81 84 88 88 87 87 85 82 78 74 77 82 84 81 76 85
88 93 96 94 92 92 92 92 93 93 91 93 93 93 93 93 92 92 89 88 85 82 78 79 79 78 80 81 87 88 88 88 89 87 81 75 76 77 81 85 86 83 84
90 91 90 94 92 91 91 92 93 92 92 93 93 93 93 93 93 92 92 89 85 82 78 79 80 79 80 85 88 88 89 89 88 85 83 80 77 73 76 84 86 82 80
86 89 90 94 92 92 92 93 93 91 92 92 93 94 94 93 92 92 91 90 86 83 78 79 80 81 84 87 86 86 88 88 87 84 72 69 68 83 83 80 77 77 78
77 86 89 95 93 92 93 94 94 93 94 93 93 93 93 93 92 92 92 90 86 83 78 78 81 84 88 86 84 84 84 83 84 79 69 76 83 76 82 84 82 80 84
73 89 92 94 94 93 94 94 95 95 95 94 94 93 92 93 92 93 92 90 86 84 80 81 84 88 87 85 82 81 81 82 83 82 67 76 80 79 84 86 89 88 88
85 94 91 90 95 93 93 95 95 95 94 94 94 93 93 93 93 93 92 90 88 87 87 87 89 88 85 83 80 80 80 80 75 70 73 82 88 83 81 84 86 89 89
86 95 94 96 96 94 94 95 95 95 94 94 94 94 94 94 93 93 92 90 91 92 92 90 88 86 84 84 82 82 82 80 66 70 74 86 90 82 79 83 89 90 90
78 96 94 91 95 96 96 95 95 95 95 95 95 94 94 94 93 94 93 92 93 93 91 88 87 85 82 80 77 76 78 81 81 70 64 81 85 78 77 82 86 88 89
79 93 98 95 96 97 96 95 94 94 95 94 94 94 94 93 93 94 94 94 93 91 90 89 88 84 81 78 76 80 85 85 68 64 67 77 86 78 77 80 83 86 88
74 86 95 98 97 97 96 92 94 94 94 94 95 94 96 97 96 95 95 94 93 92 91 90 88 86 84 80 81 84 86 70 55 53 60 88 86 78 77 83 87 88 88
77 80 84 93 96 95 80 95 97 92 96 97 97 98 97 96 96 86 90 94 94 93 91 91 90 88 88 86 84 86 81 64 62 62 57 87 86 79 78 86 88 89 89
70 70 76 79 85 85 77 95 94 97 98 97 96 96 95 84 85 85 92 91 98 94 93 91 94 93 88 85 77 75 69 63 65 67 69 89 87 82 78 83 87 87 89
70 68 71 70 74 73 73 84 86 89 91 91 88 93 92 88 81 86 88 95 97 96 96 96 96 92 88 79 75 72 67 66 68 73 86 94 91 86 81 80 82 84 89
67 67 70 69 69 64 72 73 76 79 82 82 84 87 81 89 78 75 81 85 86 93 90 90 87 84 84 78 75 73 69 67 64 71 86 94 92 91 88 83 83 83 85
57 64 66 68 68 62 71 67 66 69 73 77 76 77 78 77 84 68 78 78 79 78 82 82 80 82 79 79 75 72 71 69 65 65 78 87 93 92 92 88 87 86 85
50 56 64 66 67 67 69 65 60 63 66 69 69 76 76 75 79 64 68 78 73 69 75 74 77 79 84 74 73 72 72 68 69 67 70 80 86 94 92 92 92 90 90
44 54 57 56 66 67 64 69 56 58 64 61 66 70 73 70 78 82 70 70 76 66 72 69 71 75 77 82 77 80 77 73 70 70 69 70 78 75 90 93 92 92 92
40 50 55 56 66 67 64 69 63 62 67 56 70 62 71 68 69 81 73 74 75 74 65 74 70 72 82 81 78 80 80 80 74 59 68 66 68 75 81 88 92 93 93
38 47 51 54 65 66 65 63 79 60 65 64 57 66 69 66 66 72 78 76 73 76 78 76 77 83 78 78 59 60 74 77 74 74 68 62 68 64 69 79 90 87 93
36 47 50 54 65 66 67 68 67 75 65 64 66 54 74 67 68 64 70 72 78 68 62 76 79 76 78 81 79 82 80 79 75 65 66 71 69 67 70 66 86 86 82
34 45 50 52 64 65 63 66 62 62 70 64 64 64 59 71 71 65 63 72 63 75 77 72 73 86 73 83 72 86 83 75 76 80 78 68 68 68 67 67 74 82 81
35 42 49 51 58 62 63 65 71 79 74 76 70 66 64 65 70 69 66 64 78 62 74 68 70 67 66 88 78 80 92 86 86 83 75 71 64 79 78 72 72 78 89
34 38 45 49 52 58 63 65 69 69 69 64 62 62 62 66 68 70 69 69 68 73 64 72 68 74 70 75 91 72 82 84 85 86 91 86 83 84 89 90 88 87 90
30 35 42 49 51 51 62 63 66 68 65 63 63 64 68 67 65 70 70 72 71 70 71 69 71 76 75 66 75 88 72 74 88 92 86 88 95 95 95 94 94 97 99
38 42 39 49 54 52 57 60 64 64 65 66 67 69 66 67 69 68 72 72 72 72 70 75 71 71 69 74 70 86 78 75 74 88 86 86 89 90 96 97 98 99 99

GFSSE_sfc_rhum_240.txt.gz
RH
94 91 96 92 91 91 91 92 93 92 92 90 89 91 92 92 91 89 88 86 84 82 79 81 79 80 81 80 84 87 89 89 86 84 82 82 80 80 79 82 84 80 81
88 87 96 92 90 90 91 92 93 93 93 91 91 92 92 92 90 89 89 87 84 81 78 80 78 77 81 83 88 88 89 89 87 84 82 78 80 80 81 84 86 86 86
89 88 93 92 90 90 91 92 92 93 92 92 92 93 93 92 92 92 90 88 84 82 79 78 78 76 79 87 89 89 89 89 86 86 83 82 79 76 78 82 84 84 87
90 91 92 92 90 90 92 93 93 92 92 93 94 94 94 93 92 91 90 90 86 83 79 78 77 78 83 88 90 90 90 90 87 82 79 80 74 75 76 77 77 79 84
93 92 92 93 91 90 92 93 93 94 94 94 94 94 93 92 91 91 92 90 86 83 79 79 79 82 88 88 88 88 87 85 83 74 82 87 90 81 79 80 78 79 81
95 93 96 94 92 91 92 93 94 94 95 95 95 94 93 92 90 92 92 90 86 83 80 80 81 86 87 86 85 84 82 81 80 83 78 88 86 81 84 84 85 83 87
97 96 95 94 93 92 92 94 94 95 94 95 95 95 94 94 93 93 92 91 89 87 84 85 86 85 82 81 79 77 76 78 75 76 84 92 94 84 84 82 84 85 86
95 91 94 94 93 93 93 94 95 95 95 94 94 95 95 94 94 94 92 92 92 93 93 90 87 84 81 79 78 78 78 81 69 73 82 95 91 83 82 84 87 91 87
93 85 84 90 94 96 96 96 95 94 95 95 95 96 95 95 95 94 93 93 94 93 91 88 86 84 81 78 78 79 81 82 81 74 71 92 90 82 80 83 85 88 88
94 86 83 83 91 96 96 96 96 95 95 95 95 96 96 95 95 95 94 94 93 92 89 88 87 82 79 78 78 82 86 85 74 72 73 84 90 79 76 80 83 86 87
96 90 84 83 86 97 96 94 95 95 95 95 95 95 96 98 97 96 97 96 94 93 90 89 87 84 83 80 84 88 90 73 61 65 74 81 88 77 76 83 87 89 89
92 98 90 86 88 97 86 95 97 94 96 97 96 96 98 98 98 94 96 96 95 93 92 91 90 89 89 91 89 87 81 73 66 70 68 84 87 80 77 86 88 89 89
78 91 97 92 91 96 88 98 98 98 99 99 98 98 98 95 99 99 99 98 99 95 97 96 96 97 93 94 88 85 80 73 70 71 70 89 88 83 77 82 86 86 88
76 80 95 96 97 95 92 96 95 97 98 99 98 97 98 98 98 99 99 99 99 99 98 98 99 97 96 89 84 80 78 75 75 75 83 90 90 88 80 79 80 83 88
73 71 86 90 95 90 96 91 94 93 96 94 97 95 92 94 91 93 95 98 98 99 98 98 98 95 95 90 85 82 79 77 75 76 90 90 91 91 87 81 79 79 84
67 71 76 79 84 80 86 88 88 87 90 92 92 92 88 85 85 80 89 91 96 97 97 94 93 92 91 91 87 83 79 78 74 74 83 88 92 92 93 90 86 84 82
65 67 72 75 75 74 79 80 80 81 84 86 85 89 89 83 87 77 84 86 86 86 92 95 96 95 96 90 86 84 80 76 75 70 76 85 91 96 94 94 93 91 89
62 68 69 63 71 71 77 75 69 74 81 79 80 84 86 82 82 86 75 84 83 82 83 85 86 91 90 91 85 84 78 80 75 74 73 77 86 81 91 94 94 94 94
59 65 70 67 71 70 67 73 68 69 74 72 76 78 82 81 79 79 76 76 85 80 80 78 84 79 80 85 81 85 83 84 80 65 72 73 77 81 82 87 93 93 94
51 60 66 67 70 69 65 78 71 68 69 68 72 71 75 77 78 82 79 83 81 78 77 80 76 82 82 70 64 67 81 84 83 83 72 67 72 72 75 80 88 87 93
48 58 63 67 72 71 67 71 82 73 72 70 65 67 71 73 76 76 76 85 80 76 76 76 78 87 80 89 86 89 87 83 82 79 82 77 74 71 79 73 74 80 80
46 54 60 63 70 70 66 63 65 76 69 68 68 64 69 72 73 72 70 77 76 74 83 83 80 92 77 90 85 91 88 80 80 76 83 77 71 68 70 71 76 77 81
43 50 56 59 67 68 65 66 73 77 88 84 77 71 67 71 72 72 69 69 75 73 74 77 77 77 71 95 83 80 94 90 88 84 83 76 73 84 73 76 75 78 88
39 44 51 54 62 66 66 68 68 66 70 70 68 68 69 70 75 75 69 70 72 73 70 73 72 71 73 74 95 75 84 84 82 83 90 93 90 84 85 90 88 86 87
34 41 47 52 57 63 66 67 68 65 61 60 67 70 72 76 72 73 76 74 72 74 71 69 73 80 73 66 76 94 80 84 92 90 75 86 91 95 94 93 95 94 92
27 37 45 51 55 61 66 66 71 67 66 68 72 72 72 73 78 75 75 75 74 72 72 74 73 74 72 74 66 73 76 79 75 87 92 76 86 85 92 96 96 97 98

GFSSE_sfc_rhum_243.txt.gz
RH
95 88 95 91 89 90 90 91 91 90 89 90 91 92 92 91 90 89 89 88 87 84 80 81 81 79 80 81 82 87 89 89 87 88 85 79 75 75 80 81 80 74 74
90 82 94 91 88 89 90 91 92 90 90 91 92 92 92 90 90 90 89 87 85 82 79 79 80 78 80 83 89 89 89 89 89 87 84 76 75 76 84 88 88 81 77
85 81 91 92 89 89 90 90 91 90 90 92 92 92 91 90 91 90 89 87 84 82 78 76 79 78 80 86 90 90 88 88 88 88 85 89 83 76 80 85 88 83 79
80 80 91 92 89 90 90 91 91 90 91 93 93 93 92 91 90 90 90 89 86 82 77 75 75 79 84 91 92 91 89 88 86 85 87 80 71 74 75 80 84 85 84
80 79 90 92 90 90 91 92 93 92 93 94 94 93 92 90 88 90 92 90 86 82 76 75 77 82 88 90 90 91 89 86 82 82 94 96 90 73 74 75 78 84 87
82 80 95 94 91 90 92 92 94 94 95 95 95 94 92 89 88 91 92 89 86 82 77 77 80 86 89 89 88 87 85 82 82 88 94 92 91 79 81 79 81 82 86
84 83 96 95 93 91 92 92 93 95 95 96 96 95 94 92 92 93 92 90 88 86 84 83 85 87 86 86 84 82 79 77 80 83 92 96 95 83 82 80 82 83 83
86 84 95 94 94 93 92 93 94 94 96 96 96 96 94 94 94 94 93 93 93 92 91 88 86 84 81 79 77 76 79 79 72 85 91 96 94 84 81 81 85 88 86
89 84 96 95 94 95 96 96 95 94 95 95 96 96 95 95 95 94 93 94 94 92 89 88 85 82 80 78 77 76 79 80 79 78 78 94 91 85 81 83 85 87 86
86 85 97 97 97 97 97 97 96 96 95 95 96 96 96 96 95 95 94 94 94 91 89 86 84 82 79 76 76 80 84 84 83 76 80 87 92 84 79 80 82 85 86
85 82 88 94 90 95 97 95 95 96 96 96 96 96 97 98 98 96 97 95 94 92 89 87 86 84 82 80 84 90 90 81 73 71 82 84 88 82 77 82 86 88 88
88 84 78 76 81 87 90 96 97 95 97 97 98 97 99 99 99 97 98 97 95 93 91 90 90 88 89 93 91 88 84 76 71 70 75 85 85 79 77 84 88 89 90
91 85 78 78 78 84 92 90 94 97 97 98 99 98 99 98 99 100 100 100 99 95 97 96 96 96 94 95 93 90 86 81 77 73 74 86 85 79 77 84 86 85 89
94 93 81 78 80 86 93 88 93 90 90 91 98 98 99 99 99 100 100 99 100 99 98 98 99 97 96 95 93 88 84 84 80 77 85 90 89 85 80 79 82 83 87
80 91 88 82 83 89 96 92 93 88 89 93 98 98 98 99 98 99 99 99 99 100 99 98 98 98 97 95 93 89 85 84 82 79 87 93 90 88 87 81 80 80 83
66 79 95 91 89 94 96 96 95 95 96 99 98 97 96 95 96 98 99 99 99 99 99 98 98 98 97 96 92 89 84 83 82 81 82 90 92 89 90 90 87 85 84
64 65 89 94 96 96 93 95 94 94 95 97 96 97 95 95 97 90 98 98 98 99 98 98 98 97 98 93 95 92 90 85 82 80 80 86 90 93 94 93 93 92 90
65 68 75 74 89 91 89 93 88 90 93 91 92 94 95 89 93 95 90 94 95 98 97 98 98 97 97 98 93 93 90 90 84 81 80 82 86 85 92 94 94 93 94
64 68 72 71 81 85 82 86 84 86 88 86 88 88 92 90 86 87 84 87 96 94 92 91 95 92 95 94 93 93 95 91 87 72 77 76 81 84 84 88 93 93 93
62 64 69 67 71 76 76 79 78 80 81 81 83 82 84 86 87 86 85 90 91 91 91 94 92 94 90 81 74 75 90 84 83 87 77 73 76 77 81 82 90 87 93
60 64 68 71 69 72 70 79 80 79 77 78 76 76 80 81 86 88 81 93 87 84 84 87 88 91 89 93 90 93 92 89 85 80 80 82 80 78 83 79 80 84 81
55 63 67 69 70 70 62 63 67 69 72 72 74 74 76 78 80 82 80 84 85 84 88 90 86 91 88 94 89 94 92 85 88 78 80 79 78 79 78 78 76 77 81
46 58 63 67 68 70 61 61 73 77 92 82 78 73 75 76 77 80 78 77 83 81 83 86 85 83 78 97 87 83 94 95 93 84 88 90 87 92 83 83 82 83 88
38 47 56 62 65 70 65 63 66 78 76 72 71 71 69 74 75 78 77 78 81 82 76 82 82 80 83 84 97 84 86 87 80 77 88 92 94 91 92 92 91 89 88
32 39 49 57 63 66 69 64 66 66 66 63 68 75 74 77 73 74 76 76 76 79 77 76 84 85 82 74 84 96 88 88 93 84 74 76 90 94 95 94 94 94 92
19 33 41 52 60 64 69 67 68 64 62 68 73 78 79 76 80 76 77 76 76 76 78 78 78 82 78 76 74 82 77 88 81 94 89 73 74 79 89 95 96 96 96

GFSSE_sfc_rhum_246.txt.gz
RH
87 96 93 90 90 91 91 92 92 91 91 91 91 90 90 90 91 92 91 89 86 84 80 81 83 80 78 78 82 87 89 90 88 84 78 73 73 75 75 76 77 71 78
90 94 94 90 89 90 90 91 91 91 90 91 92 92 91 90 91 90 90 89 86 82 79 79 79 80 79 83 88 89 90 91 89 84 80 73 78 80 80 79 80 74 76
88 87 92 91 89 89 89 90 90 91 91 92 92 91 90 91 90 90 89 88 85 81 77 77 77 79 82 87 90 89 90 90 91 89 83 85 81 82 85 84 83 77 74
86 81 94 92 89 89 90 90 90 91 92 92 92 91 91 91 90 90 89 88 85 81 77 77 76 79 86 91 89 88 88 89 88 86 84 81 71 77 83 85 80 79 78
85 77 94 93 91 89 90 90 91 92 93 92 92 91 91 89 88 89 91 88 85 81 75 75 77 83 91 93 91 90 88 85 87 86 90 87 83 70 76 83 84 85 83
83 78 95 94 93 90 90 91 92 93 95 95 93 91 90 89 87 91 91 88 84 81 76 76 80 87 90 91 90 88 85 85 85 89 93 89 87 72 72 78 84 88 89
81 80 95 95 93 91 90 91 92 94 95 96 95 93 92 91 92 92 90 90 87 84 83 84 86 88 88 88 86 82 78 77 79 86 92 92 91 81 79 77 81 83 86
80 81 92 94 94 92 92 93 94 94 95 96 96 95 94 93 93 92 93 93 92 90 89 88 87 87 86 84 81 78 76 77 74 80 90 91 93 85 78 78 83 87 83
80 81 89 96 95 95 95 95 95 95 96 96 96 96 95 95 94 94 94 94 93 92 88 86 85 83 82 80 78 77 79 80 78 83 81 89 90 86 79 80 83 84 85
80 81 87 98 97 97 97 96 96 95 96 96 96 96 95 94 95 94 94 94 92 89 88 86 84 82 80 79 78 81 86 86 77 74 79 85 89 86 80 82 82 84 86
82 79 84 97 98 98 98 96 95 95 96 96 96 96 97 97 97 96 97 95 92 91 89 86 84 84 82 78 83 88 89 80 74 70 78 86 87 82 80 84 86 88 88
86 81 84 92 98 96 94 97 98 97 98 98 98 98 99 99 99 97 97 96 94 92 90 88 88 87 86 88 87 86 82 77 74 71 72 88 86 79 80 84 88 90 90
92 86 94 96 92 85 94 96 96 96 96 98 99 99 99 99 97 96 99 100 99 95 97 95 95 95 93 93 90 88 84 83 80 75 76 87 85 78 77 84 88 87 89
96 94 87 83 81 77 91 92 86 87 85 86 92 99 99 97 94 92 94 91 97 99 97 98 98 96 95 93 92 89 86 84 83 82 82 87 89 82 76 80 85 86 88
96 94 90 80 75 75 87 87 85 85 85 87 86 97 99 99 94 92 94 90 90 100 98 98 98 97 96 94 93 91 88 85 83 82 82 89 93 88 83 78 82 83 86
85 94 92 86 78 74 83 87 85 88 90 88 86 91 97 98 99 99 100 96 93 99 99 98 97 97 96 94 93 91 88 86 83 83 81 82 94 92 88 86 86 86 86
70 82 94 90 80 78 81 85 89 88 86 86 89 97 96 96 97 97 98 99 99 100 99 99 98 97 97 93 94 93 91 88 86 84 83 83 83 95 92 90 89 91 91
69 71 91 85 81 81 82 87 93 91 91 95 98 98 96 95 95 97 98 98 99 99 99 99 99 98 98 97 95 94 92 91 88 86 84 82 84 80 89 92 92 91 90
66 67 79 89 93 86 91 94 95 96 96 94 97 97 96 94 92 92 89 94 98 98 98 97 98 96 97 97 96 94 94 91 87 76 83 83 83 81 80 87 92 93 92
64 64 68 78 84 94 93 97 96 97 93 92 93 92 94 92 91 91 90 94 95 96 97 98 96 98 94 91 78 77 92 89 89 88 80 76 78 81 82 82 85 83 93
65 66 69 73 76 87 89 93 92 94 92 92 88 86 89 89 92 91 87 94 92 92 91 94 95 96 96 93 89 90 89 83 81 78 81 81 79 78 82 79 79 80 77
62 66 67 68 69 78 72 74 72 76 81 82 83 83 85 87 89 88 84 89 91 88 94 96 93 97 93 94 92 93 91 85 87 84 82 81 81 81 80 81 81 81 80
53 64 64 66 66 69 64 66 78 83 93 83 83 80 80 81 83 86 85 82 88 85 87 92 91 90 88 98 90 84 92 92 91 82 82 90 90 90 87 85 84 82 84
46 51 60 62 67 67 65 63 67 68 71 66 67 69 70 78 77 80 80 83 86 86 83 87 87 86 86 90 98 84 87 84 81 81 83 85 89 87 90 90 90 88 86
20 37 53 60 65 65 69 60 63 62 61 58 64 69 74 80 76 75 79 80 80 83 81 80 89 90 87 81 88 98 92 88 91 83 82 80 87 88 90 90 92 92 89
43 44 26 54 64 66 70 68 64 62 60 64 70 74 78 76 81 78 78 79 80 80 81 82 83 89 84 86 80 86 80 92 91 93 91 80 78 73 87 90 92 92 90

GFSSE_sfc_rhum_249.txt.gz
RH
59 62 92 92 92 92 93 94 93 92 91 90 90 90 90 90 92 91 90 89 87 85 79 81 81 80 76 76 81 87 89 86 82 80 78 72 71 72 74 77 76 50 78
61 64 93 92 92 91 92 93 93 92 91 90 90 91 90 91 92 91 89 88 86 83 79 78 77 76 77 84 89 91 90 88 85 81 79 73 73 71 73 76 75 64 81
63 66 73 92 91 91 90 91 91 91 91 91 92 90 90 90 91 91 90 87 85 82 78 77 76 77 83 87 91 91 92 91 88 86 79 54 66 76 77 78 79 76 79
61 64 65 92 91 90 90 91 91 91 91 91 91 91 91 90 90 91 91 88 84 82 78 76 76 80 85 89 90 90 90 90 89 84 46 48 55 79 82 78 77 74 72
62 62 65 92 92 91 91 92 92 92 92 91 91 91 90 90 89 89 91 87 84 82 77 74 78 84 88 89 88 87 86 86 87 58 42 46 47 72 81 77 80 80 79
61 62 85 93 92 91 90 92 93 94 94 93 91 90 89 89 88 91 90 86 82 80 78 76 83 88 91 91 88 86 86 87 86 46 46 58 48 71 79 85 87 85 86
64 67 71 94 93 92 90 92 94 95 95 94 92 91 90 90 90 90 90 88 84 82 82 85 89 89 90 89 86 83 81 82 45 49 56 59 57 75 70 75 83 87 86
66 72 70 89 93 92 92 93 94 95 96 95 94 93 92 92 91 90 91 91 88 87 88 88 88 88 88 87 84 78 76 79 58 48 51 53 76 82 76 75 80 82 84
68 74 74 72 81 94 95 94 95 95 96 96 95 95 95 94 94 93 93 93 92 91 90 88 87 87 86 83 79 76 77 79 50 47 50 50 86 85 78 78 80 82 81
75 76 81 76 74 76 78 95 94 95 96 96 96 95 94 94 94 94 94 93 92 89 87 86 85 84 82 79 78 79 83 81 44 46 50 49 85 86 80 81 82 83 84
75 77 79 81 77 78 74 78 91 94 95 96 92 94 92 62 71 78 80 93 90 89 86 85 83 83 82 79 80 84 85 43 43 41 41 74 86 80 81 85 88 88 86
75 76 76 80 76 76 65 73 72 70 69 71 72 75 66 71 67 62 78 94 91 90 88 86 85 87 80 46 49 73 45 48 45 44 41 85 85 79 78 86 89 89 89
66 70 73 79 78 72 64 67 66 67 70 73 76 76 75 72 73 66 66 67 67 82 58 66 65 52 54 51 50 53 50 53 45 46 55 84 85 81 78 85 89 88 90
67 68 71 74 77 74 64 66 66 65 68 70 76 80 78 84 83 78 74 69 74 60 61 59 55 60 64 61 61 59 58 52 46 48 57 86 88 84 78 79 86 88 89
68 72 74 78 76 72 74 67 67 68 69 66 74 84 71 77 81 78 77 68 69 66 61 61 60 61 62 63 63 64 60 59 57 51 50 85 91 87 82 77 82 86 89
61 69 74 74 73 68 71 78 70 70 68 69 67 76 79 70 72 75 81 73 66 75 62 58 58 60 60 61 63 64 62 58 56 56 48 52 89 93 88 87 83 85 87
56 61 74 75 72 72 74 80 73 68 69 68 66 74 83 72 74 72 70 71 66 73 71 68 67 64 62 61 63 59 58 59 54 56 52 50 49 88 93 92 88 88 89
46 59 67 67 72 74 74 75 75 70 71 67 67 70 80 73 71 71 62 63 62 66 63 64 62 61 60 58 58 54 52 54 55 56 53 52 47 45 69 93 91 90 89
46 55 61 70 72 73 75 75 79 78 76 67 68 67 74 73 71 68 59 59 67 62 64 62 63 64 54 56 54 52 53 50 49 43 48 51 54 55 48 67 90 91 90
47 53 56 66 70 75 69 74 79 78 78 71 69 67 70 68 73 72 62 66 68 59 60 61 64 62 60 55 49 48 55 54 53 51 46 43 46 54 56 56 54 57 91
51 56 56 66 72 70 69 74 82 83 78 73 67 70 71 70 72 73 63 67 69 62 61 66 64 67 62 66 65 58 58 60 62 53 50 49 50 51 55 55 55 50 50
27 58 59 61 67 72 63 64 63 66 66 66 66 69 71 72 72 71 70 66 67 61 68 69 71 64 64 65 60 62 57 46 55 59 55 56 59 52 51 56 58 57 56
41 42 58 61 62 68 65 62 63 58 62 69 69 69 69 71 71 75 72 69 71 69 65 73 73 73 61 69 70 56 63 56 56 53 60 57 61 57 55 55 59 59 60
41 49 51 55 62 64 67 62 67 60 59 56 60 60 62 69 71 72 74 72 72 70 69 68 68 72 71 65 72 66 64 57 53 46 52 56 60 60 62 54 55 60 60
36 44 53 57 52 63 66 66 65 64 52 47 52 60 66 66 72 68 72 72 73 69 71 71 74 77 67 64 66 65 72 65 69 67 63 52 62 56 54 57 54 60 60
36 44 47 52 59 55 66 70 69 69 61 54 55 59 59 59 65 70 68 72 72 69 71 70 73 75 73 70 62 64 60 60 64 69 69 67 61 56 51 56 59 58 59

GFSSE_sfc_rhum_252.txt.gz
RH
30 32 91 91 88 94 94 92 91 90 90 90 90 90 90 90 91 91 91 90 87 82 79 78 81 80 76 77 85 86 84 83 81 79 77 72 72 74 74 75 74 43 78
31 34 92 92 86 94 94 93 92 91 91 90 90 90 91 91 91 91 90 89 86 83 78 77 76 75 78 86 90 89 87 85 83 81 77 70 70 72 72 75 76 68 79
35 37 57 93 91 93 93 93 92 91 90 90 91 91 91 91 91 91 90 88 85 80 75 76 75 77 84 88 91 89 88 88 86 83 79 36 41 71 72 76 80 81 82
36 36 41 94 92 93 93 93 92 91 91 91 90 91 91 91 91 90 90 88 85 82 77 75 76 82 86 90 92 92 90 88 86 78 37 35 42 78 76 74 73 75 79
37 35 41 92 93 92 92 93 93 92 92 91 91 90 90 90 90 90 89 88 84 81 77 74 78 83 88 90 90 90 88 86 81 64 30 36 39 71 75 76 76 74 72
37 36 75 94 93 92 92 92 93 94 94 93 92 90 89 89 89 90 89 87 84 81 79 77 82 85 88 87 85 85 85 82 80 23 29 41 34 79 79 83 80 81 81
40 41 54 94 93 92 92 92 93 94 94 94 92 91 90 90 90 90 90 87 85 82 82 85 87 87 88 86 85 84 84 84 40 29 34 38 45 71 74 81 84 83 83
43 46 47 86 93 92 92 93 94 94 94 94 93 92 91 91 91 90 90 88 87 87 88 90 88 89 89 87 84 80 78 78 42 30 31 34 78 78 71 72 78 83 84
47 52 52 56 71 96 95 95 95 95 95 94 94 94 94 92 91 91 91 90 90 90 90 90 89 88 87 85 80 76 77 71 40 33 34 33 84 83 77 75 77 78 79
54 56 57 57 57 61 66 96 96 96 96 95 95 96 95 93 93 93 93 92 91 91 89 88 87 87 85 82 78 78 79 75 35 35 37 39 83 83 79 80 79 80 80
53 58 59 57 57 59 56 67 92 96 96 95 90 94 90 49 62 72 70 93 91 89 88 86 86 85 84 80 78 78 82 34 33 32 30 82 82 77 80 84 88 87 84
49 55 57 59 56 56 44 55 59 57 58 60 58 64 46 46 47 45 64 92 90 89 87 86 85 84 80 37 41 70 39 35 36 33 31 78 81 79 78 86 90 90 89
37 47 51 61 58 54 45 45 44 46 47 51 56 57 46 46 48 44 47 54 53 77 48 59 57 46 43 36 33 37 35 40 32 32 47 79 80 79 79 84 89 90 89
34 42 48 51 57 58 41 43 41 40 42 45 48 58 50 50 50 45 38 40 44 39 39 40 36 42 41 43 43 43 45 39 32 33 44 81 84 82 79 80 86 90 90
34 40 47 51 57 55 54 44 44 44 44 42 46 54 47 46 50 43 43 39 40 37 38 39 37 38 42 43 43 46 44 44 42 36 34 83 88 86 82 80 81 86 89
34 38 47 52 60 54 55 55 49 48 44 45 43 47 56 46 48 45 45 42 40 39 38 38 38 39 40 40 42 45 44 39 38 40 34 38 84 89 88 85 84 84 86
33 35 47 56 60 59 59 56 53 46 48 46 43 51 58 53 52 52 44 44 39 39 46 43 43 42 40 40 44 40 41 42 37 38 37 36 38 87 88 90 88 87 86
31 35 39 44 52 59 57 52 51 47 49 46 45 44 55 55 52 56 44 45 39 40 44 42 42 42 42 40 41 37 35 37 36 38 35 34 32 30 65 86 90 90 88
25 35 37 47 50 55 57 52 53 58 51 46 45 43 51 56 52 52 43 39 44 41 41 39 40 41 37 38 34 35 35 33 34 30 34 35 39 38 32 50 85 88 90
22 30 36 40 49 52 50 54 48 51 55 49 45 44 49 50 54 53 45 44 44 41 40 39 43 39 40 34 28 28 32 31 31 31 30 28 29 33 34 38 38 47 88
34 35 38 41 48 47 47 47 48 50 52 58 48 49 52 51 53 56 48 46 49 46 43 46 45 50 41 42 40 39 36 39 44 38 34 32 32 32 36 37 41 37 36
37 41 41 43 46 48 46 45 41 40 44 48 50 49 52 54 56 53 55 45 47 46 51 51 52 45 41 39 45 39 39 33 32 40 40 38 42 33 33 38 42 43 41
33 41 40 43 45 48 50 48 48 45 44 45 47 46 48 54 54 58 54 54 52 51 45 58 56 58 43 41 50 42 40 37 28 30 46 42 44 42 40 38 41 42 45
32 35 37 40 45 43 50 53 56 51 50 44 43 42 44 51 54 56 60 56 60 51 55 52 51 57 57 45 46 52 55 42 38 36 32 40 43 45 48 41 38 44 43
29 34 36 37 41 48 55 62 57 57 50 46 44 47 50 51 54 52 57 61 63 59 59 61 59 62 51 52 44 46 54 49 53 52 46 36 34 39 41 42 42 42 42
27 33 35 36 36 43 54 66 73 65 58 53 48 45 45 45 47 54 54 62 65 61 62 58 62 61 61 55 49 46 43 44 46 47 50 50 46 41 37 39 46 47 46

GFSSE_sfc_rhum_258.txt.gz
RH
36 72 90 88 94 92 92 92 93 94 93 91 91 91 91 90 90 91 91 89 86 84 79 77 79 77 77 79 80 82 85 85 84 83 83 80 76 76 77 78 76 72 86
43 65 91 91 94 91 91 92 93 93 92 91 92 92 92 92 92 92 89 88 85 82 78 78 77 82 81 79 85 86 85 85 84 82 80 75 74 80 79 81 80 79 83
44 69 73 89 94 92 92 92 93 92 92 91 92 93 92 92 92 91 89 86 86 82 78 76 78 78 82 85 88 86 85 84 84 81 72 55 73 77 81 86 84 83 84
42 53 71 88 93 93 93 93 93 91 91 92 92 92 92 92 92 90 89 84 84 82 76 75 78 80 87 91 90 87 84 84 85 84 68 40 47 72 77 81 82 81 81
37 42 78 89 87 94 93 94 93 92 93 93 93 91 91 90 90 90 90 88 85 82 76 75 78 86 91 91 89 86 82 83 85 80 66 51 61 70 71 73 78 79 80
33 54 90 90 86 95 94 94 94 94 94 94 94 92 90 89 89 90 90 89 85 82 80 79 84 89 90 89 86 82 80 78 79 58 46 61 61 76 78 80 84 80 81
46 68 80 91 91 95 94 95 95 94 94 94 94 93 92 91 91 90 90 89 87 84 84 86 89 88 88 86 84 82 77 77 73 57 44 65 81 81 81 80 80 83 82
57 59 79 93 96 96 96 95 95 94 93 94 93 93 93 93 91 90 90 89 88 88 89 90 88 86 85 83 82 79 79 81 62 55 42 60 86 80 76 80 84 85 83
52 61 71 79 89 96 96 96 96 94 93 93 93 93 93 93 92 90 90 90 89 90 91 88 87 86 85 84 83 76 75 81 80 59 47 62 81 76 69 73 79 84 85
59 65 70 75 80 85 89 96 95 95 94 94 93 93 94 93 92 91 91 90 89 90 91 88 88 88 86 85 81 76 76 81 65 53 48 60 85 80 76 77 79 81 82
53 62 67 70 72 77 77 84 94 93 93 94 92 93 95 74 81 85 81 90 90 90 90 88 88 88 87 85 82 79 77 62 50 45 52 84 84 79 80 84 85 85 85
50 59 62 67 66 70 50 81 80 76 80 81 75 84 77 72 70 57 71 90 90 91 89 88 88 87 87 72 73 83 73 56 49 47 66 87 83 79 81 87 90 89 88
42 49 55 66 68 63 56 70 66 68 71 74 74 76 74 61 70 62 79 79 87 90 81 84 85 80 72 67 59 65 59 55 47 48 66 88 84 82 80 86 90 92 92
36 44 47 52 64 68 53 59 60 58 65 66 67 75 76 70 72 66 64 71 76 71 73 70 68 71 71 66 61 61 59 53 54 52 72 86 86 82 80 81 87 90 92
31 41 48 52 63 63 68 59 59 59 60 58 64 67 66 66 72 66 63 63 63 65 66 68 63 63 64 63 62 60 58 59 58 56 63 87 88 85 83 80 82 87 90
34 39 49 48 62 59 66 71 68 66 64 60 62 60 68 62 70 65 67 64 59 58 58 57 60 58 62 61 61 62 61 60 57 58 52 71 85 86 86 84 84 86 88
36 39 52 56 61 65 69 68 66 61 57 62 59 65 67 65 70 69 66 65 64 60 62 60 60 66 64 59 61 64 58 61 58 58 59 57 66 86 87 88 87 86 87
38 44 51 47 55 65 67 67 60 57 64 60 64 60 66 64 65 72 67 68 63 64 65 65 68 65 66 64 66 62 54 57 55 53 51 50 52 44 80 87 87 87 87
39 46 50 57 56 60 67 64 64 66 64 59 59 59 63 60 62 67 64 63 69 61 64 64 63 68 64 66 57 59 63 58 56 42 47 50 54 48 45 67 84 87 87
39 46 49 55 61 58 57 59 60 58 57 56 56 52 60 59 61 66 64 70 65 60 60 59 67 66 64 63 43 40 52 50 50 56 54 46 47 51 52 47 61 74 87
39 41 46 54 62 58 57 65 67 69 61 56 54 59 60 59 65 67 64 65 69 63 63 66 64 71 64 64 62 61 61 64 63 52 56 54 44 42 55 56 56 52 54
40 41 42 45 50 53 55 60 66 67 69 63 59 57 58 58 66 65 67 65 64 63 68 72 73 65 63 60 70 65 66 62 55 51 55 46 43 44 46 50 47 46 47
44 46 43 46 47 53 52 49 60 64 65 72 75 73 64 59 59 64 66 69 69 68 65 67 71 70 66 66 62 69 78 71 66 58 56 50 48 54 50 47 48 57 56
42 44 41 46 49 48 57 56 60 61 66 70 72 71 70 76 67 59 62 67 72 68 66 66 63 67 69 68 75 55 57 66 79 79 67 66 58 59 74 74 64 63 57
41 47 48 43 43 49 55 61 60 64 58 57 63 68 68 68 72 78 82 68 69 69 71 68 69 72 66 67 63 64 62 59 61 74 63 53 63 72 73 72 64 73 62
39 48 49 47 45 48 51 58 65 67 68 68 71 68 70 63 64 73 73 80 88 76 70 73 69 72 70 67 65 62 57 63 63 68 72 66 59 52 60 68 73 66 62

GFSSE_sfc_rhum_261.txt.gz
RH
89 92 93 94 93 92 92 94 94 93 93 93 93 92 91 90 91 91 91 90 87 83 77 77 78 77 77 76 78 83 87 88 87 86 83 79 77 75 79 85 83 76 87
88 89 94 94 93 92 92 93 94 94 93 93 94 93 92 93 92 90 90 89 86 82 77 79 81 75 75 77 82 84 86 87 87 85 81 79 79 77 80 85 85 82 84
90 89 89 94 93 92 93 93 93 94 93 93 93 93 93 93 92 91 90 89 85 82 76 78 77 80 77 80 85 85 85 86 86 84 79 81 84 75 78 84 88 84 80
81 88 91 95 94 93 94 94 93 93 93 94 93 93 93 92 92 90 88 88 86 82 76 77 74 81 84 87 85 84 85 84 84 84 71 64 67 79 81 82 80 81 82
77 84 88 95 95 94 94 94 94 94 94 94 94 93 93 92 92 90 89 88 86 82 76 75 75 88 89 86 82 81 83 84 86 81 82 65 74 70 76 81 82 82 84
85 91 91 95 95 94 95 94 94 94 94 94 94 93 92 92 91 91 91 89 86 83 78 78 84 88 88 86 82 79 78 79 78 77 67 70 72 74 76 80 84 83 87
90 94 89 89 94 95 95 95 94 94 94 94 94 94 93 93 91 90 91 90 87 87 88 88 90 90 88 87 83 79 78 79 75 77 70 78 84 82 79 81 83 84 83
88 94 88 83 85 96 96 96 95 94 94 94 94 94 94 92 91 91 91 90 89 90 92 90 88 86 85 84 78 78 81 80 69 75 64 85 89 83 80 81 87 88 88
82 93 98 93 94 97 96 96 95 94 94 94 94 94 94 93 91 92 92 91 90 91 91 88 86 84 83 84 80 81 84 84 86 73 57 78 87 82 77 81 85 88 88
78 90 96 98 98 99 98 96 96 94 94 94 93 95 95 93 92 91 92 92 91 91 91 87 87 86 86 84 82 82 85 84 69 66 61 65 82 77 71 76 80 86 88
73 80 90 95 97 98 97 93 95 94 94 94 93 93 98 97 96 94 94 92 91 92 91 88 87 89 88 87 86 86 85 76 67 57 61 78 82 78 78 83 84 85 85
74 78 81 86 90 93 77 98 98 93 99 98 96 98 98 94 95 82 88 92 92 92 92 90 88 91 90 93 89 90 86 71 61 60 68 86 85 83 84 87 87 87 87
67 66 73 76 83 83 80 96 99 98 98 98 92 96 95 80 87 84 94 95 98 94 97 94 96 96 93 90 82 80 76 71 62 60 66 89 86 84 84 88 89 89 90
66 66 66 68 72 78 81 82 83 87 92 94 91 89 93 91 85 79 92 95 97 96 97 93 97 93 90 80 76 74 71 66 65 62 78 91 90 86 84 84 87 90 92
51 66 66 67 68 67 80 76 74 75 78 82 82 86 86 86 85 77 82 84 88 88 89 88 87 80 81 77 71 74 68 67 65 67 73 88 90 88 86 83 84 87 89
54 56 62 67 68 66 74 78 68 63 74 73 79 77 81 79 82 82 75 81 79 76 76 72 77 73 75 72 71 67 67 67 64 63 68 80 87 89 88 86 86 87 88
50 57 58 56 73 72 73 72 76 68 66 72 73 75 76 77 77 78 79 76 78 68 73 68 66 75 72 74 69 66 61 62 64 64 64 69 78 88 88 89 89 88 88
51 57 59 55 56 58 65 74 69 74 68 65 60 66 79 71 75 78 81 81 73 77 65 77 66 64 70 74 73 73 66 71 62 61 59 58 55 56 82 87 88 87 88
45 47 52 57 57 56 59 63 65 73 75 67 60 65 65 77 70 70 75 79 75 77 75 75 78 72 67 70 72 69 71 72 66 52 56 54 54 52 50 73 85 86 87
40 42 44 47 52 51 56 58 65 65 67 66 72 72 67 66 68 74 72 73 78 76 78 75 76 78 76 74 54 52 66 58 59 66 57 51 53 54 52 47 55 71 86
45 45 47 51 53 50 50 61 67 71 72 75 69 72 74 73 72 66 68 80 78 77 75 76 71 75 70 81 77 63 66 74 68 56 50 52 53 53 55 52 51 51 54
42 49 50 51 55 56 53 53 60 62 64 59 60 64 67 76 76 78 83 68 66 68 75 83 81 70 72 78 66 81 73 68 57 61 65 59 54 48 47 52 53 55 56
45 46 48 50 50 59 59 56 58 59 55 57 57 60 63 69 74 70 73 85 83 72 68 71 76 82 72 79 71 66 91 81 81 70 60 54 48 49 48 46 48 55 55
59 56 51 49 50 50 60 64 65 69 70 68 68 63 61 64 72 72 70 79 85 89 87 80 74 72 71 72 84 68 58 74 82 86 81 71 59 54 55 59 53 52 51
56 58 54 56 55 58 61 63 69 66 70 70 70 69 67 69 70 70 83 86 85 91 90 91 94 78 73 71 68 68 81 68 62 70 64 52 60 79 66 67 62 65 60
55 55 51 54 56 62 64 65 70 73 69 72 75 72 70 67 67 70 72 80 87 89 91 93 93 94 84 75 70 68 68 68 65 71 71 65 57 47 47 70 71 66 65